Regional Weather Roundup
Issued by NWS Raleigh/Durham, NC

Home | Current Version | Previous Version | Text Only | Print | Product List | Glossary On
Versions: 1 2 3 4 5 6 7 8 9 10 11 12 13 14 15 16 17 18 19 20 21 22 23 24 25 26 27 28 29 30 31 32 33 34 35 36 37 38 39 40 41 42 43 44 45 46 47 48 49 50
000
ASUS42 KRAH 200710
RWRRAH
NORTH CAROLINA WEATHER ROUNDUP
NATIONAL WEATHER SERVICE RALEIGH NC
200 AM EST FRI JAN 20 2017

NOTE: "FAIR" INDICATES FEW OR NO CLOUDS BELOW 12,000 FEET WITH NO
SIGNIFICANT WEATHER AND/OR OBSTRUCTIONS TO VISIBILITY.

NCZ001-053-055-056-065-067-200800-
WESTERN NORTH CAROLINA

CITY           SKY/WX    TMP DP  RH WIND       PRES   REMARKS
ASHEVILLE      LGT RAIN  52  39  61 SE6       29.90F
JEFFERSON      CLOUDY    47  36  63 S3        29.92R
MORGANTON      CLOUDY    49  46  88 CALM      29.95F
HICKORY        CLOUDY    50  42  74 CALM      29.91F
RUTHERFORDTON  CLOUDY    53  40  63 CALM      29.91F
MOUNT AIRY     NOT AVBL
BOONE          CLOUDY    48  35  61 SE3       29.92R
$$

NCZ021-022-025-041-071-084-088-200800-
CENTRAL NORTH CAROLINA

CITY           SKY/WX    TMP DP  RH WIND       PRES   REMARKS
CHARLOTTE      CLOUDY    54  40  59 SE8       29.92F
GREENSBORO     CLOUDY    48  40  73 S5        29.93S
WINSTON-SALEM  CLOUDY    48  37  65 CALM      29.93F
RALEIGH-DURHAM CLOUDY    48  42  80 SE6       29.96F
FORT BRAGG     CLOUDY    47  44  87 CALM      29.96S
FAYETTEVILLE   CLOUDY    47  44  90 E3        29.96F
BURLINGTON     CLOUDY    46  41  82 CALM      29.94F
LAURINBURG     CLOUDY    49  44  83 S5        29.97F
$$

NCZ011-015-027-028-043-044-047-080-103-200800-
NORTHEASTERN NORTH CAROLINA

CITY           SKY/WX    TMP DP  RH WIND       PRES   REMARKS
ROCKY MT-WILSO CLOUDY    45  43  93 CALM      29.99S
GREENVILLE     CLOUDY    45  45 100 CALM      30.01S
WASHINGTON     CLOUDY    42  42  97 CALM        N/A  FOG
ELIZABETH CITY CLOUDY    42  41  96 SE3       30.03S
MANTEO         MOCLDY    40  40 100 NE5       30.03F FOG
CAPE HATTERAS  MOCLDY    47  43  86 NE6       30.01F
$$

NCZ078-087-090-091-093-098-101-200800-
SOUTHEASTERN NORTH CAROLINA

CITY           SKY/WX    TMP DP  RH WIND       PRES   REMARKS
LUMBERTON      CLOUDY    48  46  93 CALM      29.96F
GOLDSBORO      CLOUDY    43  43 100 E3        29.97F
KINSTON        CLOUDY    44  42  95 CALM      30.00F
KENANSVILLE    PTCLDY    39  37  93 CALM      29.99R FOG
NEW BERN       CLOUDY    44  41  89 CALM      30.01F
CHERRY POINT   PTCLDY    43  41  93 CALM      30.00F
BEAUFORT       PTCLDY    44  42  93 NE3       30.00S
JACKSONVILLE   PTCLDY    44  44 100 CALM      29.99S
WILMINGTON     MOCLDY    45  45 100 CALM      29.99R
$$




USA.gov is the U.S. government's official web portal to all federal, state and local government web resources and services.